Point Salines Arpt, Grenada

12:24 PM AST on December 07, 2016 (GMT -0400)
Point Salines International

Weather History for TGPY - October, 2013

Change the Weather History Date:

Saturday, October 26, 2013

  Actual Average Record
Temperature  
Mean Temperature 80 °F -  
Max Temperature 86 °F 85 °F 89 °F (1997)
Min Temperature 75 °F 76 °F 75 °F (1996)
Cooling Degree Days 16    
Growing Degree Days 30 (Base 50)    
Moisture  
Dew Point 77 °F    
Average Humidity 82    
Maximum Humidity 100    
Minimum Humidity 70    
Precipitation  
Precipitation 0.03 in - - ()
Sea Level Pressure  
Sea Level Pressure 29.91 in    
Wind  
Wind Speed 16 mph ()    
Max Wind Speed 22 mph    
Max Gust Speed -    
Visibility 6.7 miles    
Events Rain    
Averages and records for this station are not official NWS values.
T = Trace of Precipitation, MM = Missing Value Source: Averaged Metar Reports

Daily Weather History Graph

Daily Weather History Graph

Search for Another Location

Airport or City:

Trip Planner

Search our weather history database for the weather conditions in past years. The results will help you decide how hot, cold, wet, or windy it might be!

Date:

Astronomy

Oct. 26, 2013 Rise Set
Actual Time 5:58 AM AST 5:43 PM AST
Civil Twilight 5:36 AM AST 6:05 PM AST
Nautical Twilight 5:11 AM AST 6:30 PM AST
Astronomical Twilight 4:46 AM AST 6:55 PM AST
Moon No Moon Rise 12:03 PM AST (10/26)
Length of Visible Light 12h 28m
Length of Day
11h 45m
Waning Gibbous, 53% of the Moon is Illuminated
Oct 26
Waning Gibbous
Oct 26
Last Quarter
Nov 3
New
Nov 10
First Quarter
Nov 17
Full

Hourly Weather History & Observations

Time (AST) Temp. Heat Index Dew Point Humidity Pressure Visibility Wind Dir Wind Speed Gust Speed Precip Events Conditions
12:00 AM 77.0 °F - 77.0 °F 100% 29.95 in 6.2 mi SE 20.7 mph - N/A Rain Light Rain Showers
1:00 AM 77.0 °F - 77.0 °F 100% 29.89 in 6.2 mi SE 20.7 mph - N/A Rain Light Rain Showers
2:00 AM 79 °F - 75 °F 84% 29.88 in 7 mi SE 18.4 mph - - Rain Light Rain Showers
2:00 AM 78.8 °F - 75.2 °F 89% 29.86 in 6.2 mi SE 18.4 mph - N/A Rain Light Rain Showers
3:00 AM 80.6 °F 87.1 °F 77.0 °F 89% 29.86 in 6.2 mi SE 19.6 mph - N/A Rain Light Rain
4:00 AM 78.8 °F - 77.0 °F 94% 29.89 in 5.0 mi ESE 13.8 mph - N/A Rain Rain
5:00 AM 81 °F - 78 °F 86% 29.89 in 7 mi ESE 16.1 mph - - Rain Light Rain
5:00 AM 80.6 °F 87.1 °F 77.0 °F 89% 29.89 in 6.2 mi ESE 16.1 mph - N/A Rain Rain
6:00 AM - - - N/A% 0.00 in 6.2 mi ESE 16.1 mph - N/A   Mostly Cloudy
7:00 AM 82.4 °F 90.9 °F 77.0 °F 84% 29.92 in 6.2 mi ESE 18.4 mph - N/A   Mostly Cloudy
8:00 AM 84 °F - 78 °F 77% 29.94 in 7 mi ESE 16.1 mph - -   Widespread Dust
8:00 AM 84.2 °F 96.1 °F 78.8 °F 84% 29.95 in 6.2 mi ESE 16.1 mph - N/A   Mostly Cloudy
9:00 AM 86.0 °F 99.3 °F 78.8 °F 79% 29.95 in 6.2 mi ESE 19.6 mph - N/A   Mostly Cloudy
10:00 AM 86.0 °F 99.3 °F 78.8 °F 79% 29.95 in 6.2 mi East 20.7 mph - N/A   Scattered Clouds
11:00 AM 85 °F - 79 °F 78% 29.96 in 9 mi ESE 19.6 mph - -   Widespread Dust
11:00 AM 86.0 °F 99.3 °F 78.8 °F 79% 29.95 in 6.2 mi ESE 19.6 mph - N/A   Scattered Clouds
12:00 PM 86.0 °F 96.9 °F 77.0 °F 74% 29.92 in 6.2 mi ESE 15.0 mph - N/A   Scattered Clouds
1:00 PM 86.0 °F 96.9 °F 77.0 °F 74% 29.89 in 6.2 mi ESE 19.6 mph - N/A   Scattered Clouds
2:00 PM 86 °F - 78 °F 72% 29.90 in 9 mi East 16.1 mph - -   Widespread Dust
2:00 PM 86.0 °F 99.3 °F 78.8 °F 79% 29.89 in 6.2 mi East 16.1 mph - N/A   Scattered Clouds
3:00 PM 86.0 °F 99.3 °F 78.8 °F 79% 29.89 in 6.2 mi ESE 21.9 mph - N/A   Mostly Cloudy
4:00 PM 84.2 °F 94.1 °F 77.0 °F 79% 29.89 in 6.2 mi ESE 13.8 mph - N/A   Mostly Cloudy
5:00 PM 84 °F - 76 °F 70% 29.90 in 9 mi ESE 19.6 mph - -   Widespread Dust
5:00 PM 84.2 °F 92.3 °F 75.2 °F 74% 29.89 in 6.2 mi ESE 19.6 mph - N/A   Mostly Cloudy
6:00 PM 82.4 °F 89.5 °F 75.2 °F 79% 29.89 in 6.2 mi East 16.1 mph - N/A   Mostly Cloudy
7:00 PM 82.4 °F 89.5 °F 75.2 °F 79% 29.92 in 6.2 mi East 12.7 mph - N/A   Mostly Cloudy
8:00 PM 82 °F - 76 °F 78% 29.94 in 9 mi East 16.1 mph - -   Widespread Dust
8:00 PM 82.4 °F 90.9 °F 77.0 °F 84% 29.95 in 6.2 mi East 16.1 mph - N/A   Mostly Cloudy
10:00 PM 82.4 °F 89.5 °F 75.2 °F 79% 29.95 in 6.2 mi East 9.2 mph - N/A   Mostly Cloudy
11:00 PM 81 °F - 76 °F 79% 29.94 in 9 mi East 11.5 mph - -   Widespread Dust
11:00 PM 80.6 °F 86.2 °F 75.2 °F 84% 29.92 in 6.2 mi East 11.5 mph - N/A   Mostly Cloudy